EHI
65 57 55 45 25 9 2 0 0 0 0 0 0 0 0 0 0 0 0 0 0 0 0 0 0 0 0 0 0 0 0 0 0 0 0 0 0 0 0 0 0 0 0
66 56 52 45 26 10 3 0 0 0 0 0 0 0 0 0 0 0 0 0 0 0 0 0 0 0 0 0 0 0 0 0 0 0 0 0 0 0 0 0 0 0 0
58 45 41 40 25 11 4 1 0 0 0 0 0 0 0 0 0 0 0 0 0 0 0 0 0 0 0 0 0 0 0 0 0 0 0 0 0 0 0 0 0 0 0
41 29 26 28 20 11 6 3 1 0 0 0 0 0 0 0 0 0 0 0 0 0 0 0 0 0 0 0 0 0 0 0 0 0 0 0 0 0 0 0 0 0 0
29 22 19 19 13 8 6 3 1 0 0 0 1 2 1 1 0 0 0 0 0 0 0 0 0 0 0 0 0 0 0 0 0 0 0 0 0 0 0 0 0 0 0
31 24 17 13 9 6 5 2 0 0 0 1 2 3 3 2 1 0 0 1 1 0 0 0 0 0 0 0 0 0 0 0 0 0 3 7 6 3 1 0 0 0 0
40 31 19 13 9 6 4 1 0 0 0 1 2 3 3 2 1 1 3 5 5 3 1 0 0 0 0 0 0 0 0 0 0 0 9 22 24 14 6 2 0 0 0
54 41 24 16 12 7 4 2 1 0 0 1 3 3 2 1 2 4 8 13 13 8 4 2 1 1 1 0 0 0 0 0 0 0 14 39 49 37 21 8 2 0 0
61 47 27 17 13 8 4 3 2 1 1 2 3 2 1 1 2 5 11 18 19 16 11 7 4 3 3 1 0 0 0 0 0 0 15 46 68 65 44 21 7 2 0
60 45 25 16 13 8 5 4 3 3 3 3 3 2 1 1 1 3 9 19 24 24 20 14 9 7 6 3 1 0 0 0 0 0 13 47 79 84 66 39 16 5 2
55 44 28 22 18 8 7 10 7 4 5 5 4 5 5 3 1 4 16 32 40 39 35 29 20 15 11 6 3 2 2 0 0 1 14 50 84 93 80 57 32 14 5
46 40 37 40 31 14 15 23 14 10 17 15 12 16 17 10 4 10 32 57 65 58 51 45 37 28 18 9 9 14 10 2 0 1 18 57 88 95 87 70 47 25 13
38 37 46 58 52 32 32 37 25 24 37 35 30 35 37 29 19 22 46 74 81 71 59 52 47 35 18 10 17 26 18 4 0 4 25 62 88 93 88 74 54 35 23
45 44 54 71 71 57 51 49 42 41 48 50 49 52 57 57 47 44 60 76 78 70 61 53 47 36 21 14 19 25 19 7 3 8 30 59 79 86 83 71 55 39 29
64 61 66 76 79 72 62 56 52 51 50 49 53 61 69 75 72 67 68 68 62 59 57 51 46 41 35 27 23 24 21 15 11 16 30 51 65 72 72 63 50 37 28
77 75 73 73 75 73 65 57 52 51 49 46 51 63 71 76 76 70 61 52 45 43 43 43 44 46 45 38 32 31 30 25 22 23 31 44 52 54 53 50 44 35 27
82 81 74 67 65 66 62 56 50 48 47 49 53 59 62 64 62 56 47 40 34 30 31 33 36 40 38 34 32 32 32 29 26 27 30 37 40 37 35 35 34 31 26
79 79 74 65 62 62 59 54 47 44 44 46 47 49 49 48 44 40 35 31 26 21 22 25 27 29 28 25 23 23 25 26 22 20 22 25 24 22 22 22 22 22 20
66 68 68 65 62 60 56 50 45 43 40 38 37 37 38 32 28 27 26 24 20 17 16 17 19 21 21 19 15 12 14 16 13 10 11 11 10 12 14 15 15 12 10
45 50 55 57 58 56 53 50 46 43 37 30 26 26 24 19 16 17 19 19 17 15 13 13 13 14 15 13 8 5 5 5 4 3 3 3 3 5 8 13 14 8 4
25 29 36 41 42 42 43 42 40 35 28 19 14 13 12 9 8 10 13 15 15 12 10 10 9 9 9 8 5 2 1 0 0 0 0 0 0 1 5 12 15 11 6
11 14 20 24 25 26 28 27 25 22 17 10 7 8 8 5 3 4 8 10 10 9 8 7 6 6 5 5 4 2 0 0 0 0 0 0 0 1 3 8 14 16 14
5 6 10 16 17 16 16 15 14 12 9 6 7 9 7 3 1 1 3 4 5 7 7 5 4 5 4 4 3 1 0 0 0 0 0 0 0 0 1 3 9 15 16
2 3 8 13 16 15 13 11 8 6 3 3 5 6 5 2 1 0 1 2 2 4 5 4 4 5 5 3 1 1 0 0 0 0 0 0 0 0 0 1 4 9 11
1 1 6 14 18 17 13 9 5 2 1 1 1 2 1 1 1 0 1 1 1 2 2 3 3 5 4 2 0 0 0 0 0 0 0 0 0 0 0 0 2 5 7
1 1 5 15 22 21 14 7 4 2 1 0 0 0 0 0 1 0 0 1 0 0 1 1 2 3 3 1 0 0 0 0 0 0 0 0 1 1 1 1 2 6 9
Wind_Speed
18 19 19 16 14 13 12 12 13 12 12 11 10 10 10 10 10 10 10 11 10 10 10 10 9 9 9 9 10 10 11 11 11 12 13 12 11 10 9 8 10 13 14
21 19 19 16 14 13 12 12 12 12 12 11 11 10 10 9 9 9 9 9 9 9 9 9 9 9 8 9 9 9 9 8 9 9 11 11 10 9 9 8 12 11 14
21 18 17 16 14 13 12 11 12 12 12 11 11 10 10 9 9 9 9 8 8 8 8 9 8 8 8 8 8 7 7 6 6 7 7 8 9 9 10 13 15 14 13
20 17 16 17 15 13 12 11 11 11 11 11 11 10 10 10 9 9 8 8 7 8 8 8 8 8 8 7 7 6 5 4 4 5 5 5 8 11 10 11 12 12 12
18 16 17 17 15 14 12 11 11 11 11 11 11 10 10 10 9 9 8 8 7 7 7 7 7 7 7 7 6 5 4 4 4 7 4 5 8 11 10 10 10 10 10
18 17 17 17 15 14 12 11 11 11 11 11 10 10 10 9 9 9 8 8 7 7 7 7 7 7 6 6 6 5 5 5 6 7 4 7 9 11 11 9 9 9 9
18 17 17 17 15 14 12 11 11 10 10 10 10 10 9 9 9 9 9 8 8 8 8 7 7 7 7 7 7 6 6 7 8 7 2 7 10 13 12 10 9 8 8
19 18 15 16 15 13 12 11 10 10 9 9 9 9 9 9 9 9 9 9 9 9 9 8 8 8 8 8 8 7 8 9 9 8 4 8 15 15 14 11 10 9 9
19 18 14 14 12 13 12 11 10 10 9 9 9 9 8 9 9 9 9 9 10 10 10 9 9 9 9 9 9 9 9 10 9 8 5 8 16 17 15 13 11 11 10
18 17 14 14 12 11 11 12 11 10 10 9 9 9 9 9 10 10 10 11 11 11 11 11 11 11 11 11 11 11 11 9 9 11 6 9 20 19 17 15 13 12 12
14 14 14 14 12 11 11 12 12 11 10 10 10 11 10 8 10 11 14 15 15 14 13 13 13 12 12 13 14 14 12 7 10 9 6 12 21 20 19 17 15 14 13
10 11 10 11 11 9 8 10 8 9 10 9 8 10 9 8 8 11 15 19 19 18 16 16 15 13 12 9 13 16 8 10 11 8 6 17 20 20 19 17 16 15 15
6 6 9 9 8 5 3 7 5 5 6 9 9 8 8 7 6 7 4 10 12 14 11 12 13 10 10 8 6 8 10 10 7 7 6 18 20 20 19 18 16 15 16
6 4 4 8 6 2 2 1 1 1 1 3 4 5 4 2 3 4 2 3 6 6 8 8 7 10 11 10 9 9 11 8 7 4 6 16 17 17 18 18 17 16 16
5 4 6 7 7 5 4 4 4 3 3 2 0 2 2 2 3 4 3 3 3 3 5 7 7 7 8 7 7 8 8 9 8 4 4 15 17 17 18 18 18 18 17
7 6 7 7 6 4 3 2 2 3 2 3 2 2 2 2 2 3 3 4 4 4 4 4 5 5 5 5 6 7 6 6 6 5 4 8 15 16 16 17 18 19 19
8 7 6 5 5 4 3 3 3 3 3 3 3 3 3 3 3 3 3 4 4 5 6 5 6 4 5 5 6 7 6 7 6 6 6 4 7 14 17 18 19 19 19
8 7 6 5 5 3 2 2 3 4 4 3 3 3 3 4 4 3 3 4 4 4 5 6 6 5 5 5 5 6 6 5 8 8 7 6 6 8 14 20 19 19 20
7 6 6 6 6 5 3 2 2 2 2 2 2 2 2 3 4 3 3 4 4 5 5 7 6 5 6 5 5 6 6 6 8 10 9 9 8 8 8 15 21 21 21
6 5 5 4 4 4 3 2 2 2 2 1 1 0 2 2 4 4 4 4 4 4 4 5 6 5 5 4 7 7 7 7 8 8 10 9 9 11 10 10 12 15 20
5 4 4 4 4 3 3 4 3 3 3 2 1 1 1 2 3 4 3 3 3 3 4 5 5 6 5 4 4 5 6 9 9 8 8 8 9 10 8 8 9 9 10
4 3 3 3 4 4 3 3 2 3 3 3 1 0 1 1 3 4 3 3 3 3 4 4 4 3 4 4 3 3 4 5 7 10 7 7 7 6 8 10 7 8 6
3 2 3 3 2 4 5 4 4 4 4 3 3 1 0 1 2 3 3 4 3 3 3 4 3 3 3 3 3 4 3 3 2 4 7 7 6 4 4 4 7 7 7
2 2 3 2 1 2 4 5 7 6 6 6 4 3 4 3 4 3 3 3 3 3 3 3 2 2 3 3 3 3 4 3 1 1 3 5 6 5 3 3 5 6 6
2 1 1 2 1 2 3 5 6 7 6 6 7 7 7 6 6 5 4 3 2 2 2 3 3 3 3 3 3 3 4 4 3 2 3 3 3 4 4 3 2 3 5
2 2 3 4 3 3 4 5 6 7 7 8 9 9 8 6 5 4 4 3 3 2 2 2 3 4 3 4 3 3 3 2 3 3 3 4 4 4 5 4 3 3 3
Wind_Direction
119 131 134 131 128 126 129 135 140 141 137 134 130 128 125 121 116 113 110 109 108 107 106 106 106 100 93 86 82 81 81 81 84 87 90 89 86 82 77 86 111 97 102
122 130 133 131 129 127 129 135 141 142 141 139 138 137 135 132 129 126 122 120 118 114 112 110 108 105 101 99 96 94 93 96 100 106 110 103 92 79 65 68 94 106 108
121 129 133 131 130 128 129 133 139 144 145 143 143 143 141 142 141 138 135 133 131 125 119 116 113 111 110 109 109 109 110 116 126 138 157 130 109 90 80 86 98 106 108
124 135 134 134 133 131 129 132 138 145 148 148 147 147 148 149 149 148 147 146 145 137 129 126 123 122 121 122 124 126 134 150 166 189 209 153 124 108 99 98 104 109 112
126 128 131 138 135 134 132 132 137 144 149 152 152 153 155 156 157 157 158 159 158 150 144 141 137 136 137 138 142 149 167 197 219 240 240 111 106 124 117 114 114 116 119
128 129 135 140 138 137 137 138 141 145 150 155 158 160 161 162 164 165 167 170 167 160 158 156 154 153 155 158 163 175 199 225 247 240 220 134 123 137 132 132 130 130 129
132 130 138 141 141 142 143 145 148 150 154 159 162 165 168 171 173 175 177 179 176 173 172 171 171 170 174 179 186 195 216 239 254 270 200 127 135 146 144 147 147 147 146
131 130 136 141 143 146 150 154 157 160 164 168 172 175 179 183 185 187 188 188 187 186 185 184 185 186 189 194 201 211 225 248 246 256 198 137 148 153 154 160 163 163 163
130 130 142 147 149 153 158 164 168 172 177 182 186 188 193 198 199 201 201 201 200 200 197 196 197 198 200 204 210 218 231 245 271 278 241 146 157 158 161 169 176 178 178
131 137 148 152 154 161 167 174 178 183 188 193 198 201 206 211 214 216 213 209 211 209 207 208 209 210 209 211 215 220 229 245 255 263 255 167 163 163 166 174 183 188 189
134 140 156 154 158 171 174 172 180 190 197 200 205 211 214 219 216 213 221 212 209 212 213 215 217 218 217 218 220 221 223 232 241 244 249 172 167 168 171 177 187 195 196
134 145 151 152 156 180 182 154 184 192 191 203 207 199 206 222 233 230 209 207 208 210 214 217 220 222 221 225 220 217 220 225 244 244 220 170 171 172 175 179 188 197 200
141 150 144 141 145 178 156 155 193 197 176 195 217 205 206 216 228 237 218 195 205 211 216 217 217 220 221 222 222 199 214 227 228 238 196 173 174 177 179 183 190 199 203
135 126 105 115 124 99 46 22 354 338 140 190 195 214 218 219 260 271 263 191 194 206 216 222 211 214 221 223 224 207 209 221 239 228 182 180 179 181 185 187 194 202 206
102 85 69 78 80 60 36 2 7 350 343 328 92 220 241 241 249 267 285 292 266 229 216 222 227 219 219 223 228 223 222 224 241 249 182 182 186 189 191 193 199 206 209
63 58 59 62 70 66 47 9 339 320 309 308 308 306 292 280 274 281 286 287 288 287 281 253 245 235 230 229 228 231 233 237 238 245 221 193 194 198 199 201 205 209 212
60 55 50 66 63 54 24 344 321 300 313 331 332 326 321 309 309 296 282 275 271 276 281 277 269 254 240 236 236 235 234 235 241 238 235 204 205 205 210 212 209 210 213
55 54 39 32 47 48 33 345 315 324 333 329 324 333 340 330 318 303 284 274 266 260 261 267 264 257 245 235 235 242 235 230 237 236 230 214 215 217 213 215 214 213 214
59 55 53 39 32 21 5 336 308 300 295 296 310 342 353 330 321 304 287 283 282 266 254 257 254 245 248 240 237 238 237 226 231 231 222 221 222 223 212 209 213 213 215
70 63 56 56 41 8 1 338 336 331 328 301 297 13 345 323 319 309 286 284 288 276 263 253 255 251 249 242 250 246 233 225 222 221 219 218 221 223 215 207 203 213 215
77 73 62 55 43 12 23 355 346 342 328 306 273 92 358 318 318 294 298 305 289 284 274 263 257 250 243 233 244 256 251 235 225 219 214 217 218 215 211 200 191 196 207
102 106 103 67 39 16 18 323 295 309 295 275 291 138 232 315 318 305 316 294 292 293 289 287 269 258 249 215 211 235 249 237 226 216 203 209 222 216 205 201 187 184 185
126 112 78 64 31 16 347 320 332 320 301 311 333 304 252 292 283 289 292 286 289 283 286 283 269 262 263 255 223 227 236 246 226 218 205 202 199 213 207 189 181 176 186
164 171 143 134 47 356 333 333 332 313 309 315 316 321 325 302 271 253 254 269 285 287 285 286 272 260 259 267 265 249 253 281 256 257 217 197 183 191 208 211 189 173 176
298 305 170 144 101 358 341 320 314 311 318 319 321 312 302 285 260 240 230 226 252 274 290 294 291 274 265 255 258 269 268 271 253 223 222 200 183 181 188 199 195 156 162
304 332 5 48 33 9 341 325 316 313 312 307 300 292 287 278 267 247 225 207 218 242 267 279 284 279 271 260 248 260 264 258 264 251 225 203 193 194 181 175 172 157 145